Weather History for Monticello, IA

Change the Weather History Date:

Tuesday, February 5, 2013

  Actual Average Record
Temperature  
Mean Temperature 24 °F -  
Max Temperature 35 °F 31 °F 50 °F (2005)
Min Temperature 12 °F 16 °F -18 °F (2007)
Degree Days  
Heating Degree Days 42    
Moisture  
Dew Point 20 °F    
Average Humidity 77    
Maximum Humidity 86    
Minimum Humidity 70    
Precipitation  
Precipitation 0.01 in - - ()
Sea Level Pressure  
Sea Level Pressure 29.91 in    
Wind  
Wind Speed 7 mph (West)    
Max Wind Speed 21 mph    
Max Gust Speed 32 mph    
Visibility 8 miles    
Events Snow    
Averages and records for this station are not official NWS values.
T = Trace of Precipitation, MM = Missing Value Source: NWS Daily Summary

Daily Weather History Graph

Daily Weather History Graph

Search for Another Location

Airport:

Trip Planner

Search our weather history database for the weather conditions in past years. The results will help you decide how hot, cold, wet, or windy it might be!

Date:

Astronomy

Feb. 05, 2013 Rise Set
Actual Time 7:13 AM CST 5:24 PM CST
Civil Twilight 6:43 AM CST 5:54 PM CST
Nautical Twilight 6:10 AM CST 6:27 PM CST
Astronomical Twilight 5:37 AM CST 7:00 PM CST
Moon 2:57 AM CST (2/5) 12:40 PM CST (2/5)
Length of Visible Light 11h 10m
Length of Day
10h 11m
Waning Crescent, 26% of the Moon is Illuminated
Feb 5
Waning Crescent
Feb 10
New
Feb 17
First Quarter
Feb 25
Full
Mar 4
Last Quarter

Hourly Weather History & Observations

Time (CST) Temp. Windchill Dew Point Humidity Pressure Visibility Wind Dir Wind Speed Gust Speed Precip Events Conditions
12:15 AM 12.2 °F - 8.6 °F 85% 29.94 in 10.0 mi Calm Calm - N/A   Mostly Cloudy
12:35 AM 14.0 °F - 8.6 °F 79% 29.93 in 10.0 mi Calm Calm - N/A   Scattered Clouds
12:55 AM 12.2 °F - 8.6 °F 85% 29.93 in 10.0 mi Calm Calm - N/A   Scattered Clouds
1:15 AM 15.8 °F - 10.4 °F 79% 29.91 in 10.0 mi Calm Calm - N/A   Scattered Clouds
1:35 AM 15.8 °F 7.2 °F 10.4 °F 79% 29.90 in 10.0 mi SSE 5.8 mph - N/A   Mostly Cloudy
1:55 AM 15.8 °F - 10.4 °F 79% 29.91 in 10.0 mi Calm Calm - N/A   Overcast
2:15 AM 17.6 °F - 10.4 °F 73% 29.91 in 10.0 mi Calm Calm - N/A   Overcast
2:35 AM 17.6 °F 10.7 °F 12.2 °F 79% 29.90 in 7.0 mi South 4.6 mph - N/A Snow Light Snow
2:55 AM 17.6 °F 9.3 °F 12.2 °F 79% 29.88 in 3.0 mi South 5.8 mph - N/A Snow Light Snow
3:15 AM 19.4 °F 11.5 °F 14.0 °F 80% 29.88 in 2.5 mi South 5.8 mph - N/A Snow Light Snow
3:35 AM 19.4 °F 11.5 °F 14.0 °F 80% 29.86 in 2.5 mi South 5.8 mph - N/A Snow Light Snow
3:55 AM 19.4 °F 8.6 °F 15.8 °F 86% 29.85 in 5.0 mi South 9.2 mph - N/A Snow Light Snow
4:15 AM 19.4 °F 11.5 °F 15.8 °F 86% 29.85 in 7.0 mi South 5.8 mph - N/A   Overcast
4:35 AM 21.2 °F 12.6 °F 15.8 °F 80% 29.84 in 7.0 mi South 6.9 mph - N/A   Overcast
4:55 AM 21.2 °F 11.7 °F 15.8 °F 80% 29.85 in 7.0 mi South 8.1 mph - N/A   Overcast
5:15 AM 21.2 °F 10.9 °F 15.8 °F 80% 29.83 in 7.0 mi South 9.2 mph - N/A   Overcast
5:35 AM 21.2 °F 11.7 °F 15.8 °F 80% 29.83 in 10.0 mi South 8.1 mph - N/A   Overcast
5:55 AM 21.2 °F 12.6 °F 15.8 °F 80% 29.82 in 7.0 mi South 6.9 mph - N/A   Mostly Cloudy
6:15 AM 21.2 °F 12.6 °F 15.8 °F 80% 29.82 in 7.0 mi South 6.9 mph - N/A   Mostly Cloudy
6:35 AM 21.2 °F 11.7 °F 15.8 °F 80% 29.82 in 10.0 mi South 8.1 mph - N/A   Scattered Clouds
6:55 AM 21.2 °F 11.7 °F 17.6 °F 86% 29.81 in 10.0 mi South 8.1 mph - N/A   Clear
7:15 AM 21.2 °F 10.9 °F 17.6 °F 86% 29.81 in 7.0 mi South 9.2 mph - N/A   Scattered Clouds
7:35 AM 23.0 °F 13.1 °F 17.6 °F 80% 29.81 in 7.0 mi SSW 9.2 mph - N/A   Scattered Clouds
7:55 AM 23.0 °F 13.9 °F 17.6 °F 80% 29.81 in 7.0 mi SSW 8.1 mph - N/A   Scattered Clouds
8:15 AM 23.0 °F 13.9 °F 17.6 °F 80% 29.81 in 7.0 mi SSW 8.1 mph - N/A   Scattered Clouds
8:35 AM 24.8 °F 14.6 °F 17.6 °F 74% 29.81 in 7.0 mi SW 10.4 mph - N/A   Mostly Cloudy
8:55 AM 24.8 °F 16.1 °F 17.6 °F 74% 29.80 in 7.0 mi SW 8.1 mph - N/A   Scattered Clouds
9:15 AM 24.8 °F 14.6 °F 19.4 °F 80% 29.80 in 7.0 mi SW 10.4 mph - N/A   Scattered Clouds
9:35 AM 26.6 °F 17.5 °F 19.4 °F 74% 29.80 in 7.0 mi SW 9.2 mph - N/A   Overcast
9:55 AM 26.6 °F 18.2 °F 19.4 °F 74% 29.79 in 7.0 mi SW 8.1 mph - N/A   Mostly Cloudy
10:15 AM 26.6 °F 15.2 °F 21.2 °F 80% 29.80 in 7.0 mi WSW 13.8 mph - N/A   Scattered Clouds
10:35 AM 28.4 °F 19.7 °F 21.2 °F 74% 29.81 in 7.0 mi West 9.2 mph - N/A   Scattered Clouds
10:55 AM 28.4 °F 18.0 °F 21.2 °F 74% 29.81 in 7.0 mi West 12.7 mph - N/A   Clear
11:15 AM 30.2 °F 19.8 °F 23.0 °F 75% 29.82 in 7.0 mi West 13.8 mph 17.3 mph N/A   Scattered Clouds
11:35 AM 30.2 °F 20.2 °F 23.0 °F 75% 29.82 in 7.0 mi West 12.7 mph - N/A   Overcast
11:55 AM 30.2 °F 19.8 °F 24.8 °F 80% 29.83 in 0.5 mi West 13.8 mph - N/A Snow Light Snow
12:15 PM 30.2 °F 20.8 °F 24.8 °F 80% 29.83 in 5.0 mi WNW 11.5 mph 16.1 mph N/A   Haze
12:35 PM 30.2 °F 20.8 °F 24.8 °F 80% 29.82 in 1.8 mi WNW 11.5 mph - N/A Snow Light Snow
12:55 PM 30.2 °F 20.8 °F 26.6 °F 86% 29.84 in 4.0 mi WNW 11.5 mph - N/A Snow Light Snow
1:15 PM 33.8 °F 24.3 °F 26.6 °F 75% 29.84 in 7.0 mi WNW 13.8 mph 18.4 mph 0.01 in   Overcast
1:35 PM 33.8 °F 23.2 °F 26.6 °F 75% 29.85 in 7.0 mi WNW 17.3 mph 24.2 mph 0.01 in   Overcast
1:55 PM 33.8 °F 23.5 °F 26.6 °F 75% 29.85 in 7.0 mi NW 16.1 mph 25.3 mph 0.01 in   Overcast
2:15 PM 33.8 °F 22.2 °F 26.6 °F 75% 29.85 in 10.0 mi NW 20.7 mph 25.3 mph N/A   Overcast
2:35 PM 35.6 °F 25.9 °F 28.4 °F 75% 29.87 in 10.0 mi NW 16.1 mph 19.6 mph N/A   Overcast
2:55 PM 35.6 °F 25.5 °F 28.4 °F 75% 29.88 in 10.0 mi NW 17.3 mph 25.3 mph N/A   Overcast
3:15 PM 35.6 °F 25.2 °F 26.6 °F 70% 29.89 in 10.0 mi NW 18.4 mph 32.2 mph N/A   Overcast
3:35 PM 35.6 °F 26.2 °F 28.4 °F 75% 29.90 in 10.0 mi WNW 15.0 mph 23.0 mph N/A   Overcast
3:55 PM 35.6 °F 27.1 °F 28.4 °F 75% 29.91 in 10.0 mi NW 12.7 mph - N/A   Overcast
4:15 PM 35.6 °F 26.6 °F 28.4 °F 75% 29.92 in 10.0 mi NW 13.8 mph 20.7 mph N/A   Overcast
4:35 PM 35.6 °F 25.9 °F 28.4 °F 75% 29.93 in 10.0 mi NW 16.1 mph 19.6 mph N/A   Overcast
4:55 PM 35.6 °F 25.2 °F 26.6 °F 70% 29.94 in 10.0 mi NW 18.4 mph 26.5 mph N/A   Overcast
5:15 PM 35.6 °F 26.2 °F 26.6 °F 70% 29.95 in 10.0 mi WNW 15.0 mph 24.2 mph N/A   Overcast
5:35 PM 33.8 °F 23.5 °F 26.6 °F 75% 29.96 in 10.0 mi NW 16.1 mph - N/A   Overcast
5:55 PM 33.8 °F 24.8 °F 26.6 °F 75% 29.97 in 10.0 mi NW 12.7 mph - N/A   Mostly Cloudy
6:15 PM 33.8 °F 26.4 °F 26.6 °F 75% 29.98 in 10.0 mi NW 9.2 mph - N/A   Mostly Cloudy
6:35 PM 33.8 °F 25.3 °F 24.8 °F 70% 29.99 in 10.0 mi NW 11.5 mph - N/A   Overcast
6:55 PM 33.8 °F 25.8 °F 24.8 °F 70% 29.99 in 10.0 mi NW 10.4 mph - N/A   Overcast
7:15 PM 33.8 °F 27.0 °F 26.6 °F 75% 30.00 in 10.0 mi NNW 8.1 mph - N/A   Overcast
7:35 PM 33.8 °F 27.7 °F 24.8 °F 70% 30.01 in 10.0 mi NNW 6.9 mph - N/A   Overcast
7:55 PM 32.0 °F 27.5 °F 24.8 °F 75% 30.01 in 10.0 mi NW 4.6 mph - N/A   Overcast
8:15 PM 30.2 °F 24.3 °F 23.0 °F 75% 30.02 in 10.0 mi NW 5.8 mph - N/A   Mostly Cloudy
8:35 PM 30.2 °F 24.3 °F 23.0 °F 75% 30.03 in 10.0 mi NNW 5.8 mph - N/A   Mostly Cloudy
8:55 PM 28.4 °F 22.2 °F 21.2 °F 74% 30.03 in 10.0 mi NNW 5.8 mph - N/A   Mostly Cloudy
9:15 PM 28.4 °F 19.1 °F 21.2 °F 74% 30.04 in 10.0 mi NNW 10.4 mph - N/A   Scattered Clouds
9:35 PM 28.4 °F 21.2 °F 21.2 °F 74% 30.06 in 10.0 mi WNW 6.9 mph - N/A   Clear
9:55 PM 24.8 °F 19.1 °F 19.4 °F 80% 30.07 in 10.0 mi West 4.6 mph - N/A   Mostly Cloudy
10:15 PM 24.8 °F 20.5 °F 19.4 °F 80% 30.08 in 10.0 mi West 3.5 mph - N/A   Overcast
10:35 PM 24.8 °F - 19.4 °F 80% 30.08 in 10.0 mi Calm Calm - N/A   Overcast
10:55 PM 24.8 °F - 19.4 °F 80% 30.09 in 10.0 mi Calm Calm - N/A   Overcast
11:15 PM 24.8 °F 20.5 °F 19.4 °F 80% 30.09 in 10.0 mi WNW 3.5 mph - N/A   Overcast
11:35 PM 24.8 °F - 19.4 °F 80% 30.10 in 10.0 mi Calm Calm - N/A   Overcast
11:55 PM 26.6 °F 21.2 °F 19.4 °F 74% 30.11 in 10.0 mi NW 4.6 mph - N/A   Overcast